Regional Weather Roundup
Issued by NWS Raleigh/Durham, NC

Current Version | Previous Version | Graphics & Text | Print | Product List | Glossary On
Versions: 1 2 3 4 5 6 7 8 9 10 11 12 13 14 15 16 17 18 19 20 21 22 23 24 25 26 27
000
ASUS42 KRAH 160410
RWRRAH
NORTH CAROLINA WEATHER ROUNDUP
NATIONAL WEATHER SERVICE RALEIGH NC
1200 AM EDT WED APR 16 2014

NOTE: "FAIR" INDICATES FEW OR NO CLOUDS BELOW 12,000 FEET WITH NO
SIGNIFICANT WEATHER AND/OR OBSTRUCTIONS TO VISIBILITY.

NCZ001-053-055-056-065-067-160500-
WESTERN NORTH CAROLINA

CITY           SKY/WX    TMP DP  RH WIND       PRES   REMARKS
ASHEVILLE      CLOUDY    33  20  58 N23G32    30.05R WCI  21
JEFFERSON      MOCLDY    27  18  69 NW21G30   29.97R WCI  13
MORGANTON      CLEAR     29  28  94 N6        30.07R WCI  23
HICKORY        CLEAR     35  21  56 N3        30.03R
RUTHERFORDTON  PTCLDY    37  21  53 N12       30.04R WCI  29
MOUNT AIRY     CLEAR     36  21  54 N10G20    30.03R WCI  28
BOONE          PTCLDY    26  16  64 NW17G37   29.98R WCI  14
$$

NCZ021-022-025-041-071-084-088-160500-
CENTRAL NORTH CAROLINA

CITY           SKY/WX    TMP DP  RH WIND       PRES   REMARKS
CHARLOTTE      CLEAR     38  25  59 N9        30.04R WCI  31
GREENSBORO     CLEAR     36  25  64 N8        30.03R WCI  30
WINSTON-SALEM  CLEAR     36  22  56 N9        30.05R WCI  29
RALEIGH-DURHAM PTCLDY    41  30  65 N9        30.02R
FORT BRAGG     CLEAR     43  34  70 NW12G25   30.00R
FAYETTEVILLE   CLEAR     44  34  67 NW15      29.99R
CHAPEL HILL    CLEAR     40  27  59 NW12G25   30.04R WCI  33
BURLINGTON     CLEAR     38  24  57 N9        30.03R WCI  31
LAURINBURG     PTCLDY    43  35  73 N17G23    30.01R
$$

NCZ011-015-027-028-043-044-047-080-103-160500-
NORTHEASTERN NORTH CAROLINA

CITY           SKY/WX    TMP DP  RH WIND       PRES   REMARKS
GREENVILLE     DRIZZLE   43  41  93 N20G28    29.99R
WASHINGTON     CLOUDY    45  41  85 N14G23    29.95R
ELIZABETH CITY HVY RAIN  44  42  93 N23G32    29.92R FOG
MANTEO         RAIN      46  45  97 N26G40    29.89R
CAPE HATTERAS  HVY RAIN  51  49  92 N16G38    29.80R FOG
$$

NCZ078-087-090-091-093-098-101-160500-
SOUTHEASTERN NORTH CAROLINA

CITY           SKY/WX    TMP DP  RH WIND       PRES   REMARKS
LUMBERTON      PTCLDY    45  33  63 N15       29.98R
GOLDSBORO      CLOUDY    46  45  97 NW12G25   29.94R
KINSTON        LGT RAIN  47  46  97 N25G31    29.94R
KENANSVILLE    CLOUDY    45  42  91 NW13G18   29.95R
NEW BERN       LGT RAIN  50  45  83 N18G33    29.90R
CHERRY POINT   RAIN      51  46  83 N25G38    29.87R
BEAUFORT       HVY RAIN  52  49  89 N21G31    29.84R FOG
JACKSONVILLE   LGT RAIN  50  49  96 NW20G30   29.88R
WILMINGTON     CLOUDY    49  45  86 N23G36    29.90R
$$




USA.gov is the U.S. government's official web portal to all federal, state and local government web resources and services.